Tracking 25534 objects as of 29-Jan-2022
HD Live streaming from Space Station
objects crossing your sky now

THOR ABLESTAR DEB

Track THOR ABLESTAR DEB now!
10-day predictions


NORAD ID: 48811
Int'l Code: 1961-015MP
Perigee: 897.4 km
Apogee: 1,056.9 km
Inclination: 67.1 °
Period: 104.5 minutes
Semi major axis: 7348 km
RCS: Unknown
Launch date: June 29, 1961
Source: United States (US)
Launch site: AIR FORCE EASTERN TEST RANGE (AFETR)

Note: This is SATELLITE DEBRIS
aabbcc
Your satellite tracking list
Your tracking list is empty




NASA's NSSDC Master Catalog

Two Line Element Set (TLE):
1 48811U 61015MP  22028.72132263  .00000112  00000-0  17501-3 0  9996
2 48811  67.0594 184.6403 0108546 241.7970 117.2110 13.78285342411951
Source of the keplerian elements: AFSPC